Weather History for Charles City, IA

Change the Weather History Date:

Sunday, May 26, 2013

  Actual Average Record
Temperature  
Mean Temperature 50 °F -  
Max Temperature 55 °F 73 °F 94 °F (1967)
Min Temperature 46 °F 51 °F 34 °F (1961)
Degree Days  
Heating Degree Days 14    
Moisture  
Dew Point 47 °F    
Average Humidity 88    
Maximum Humidity 94    
Minimum Humidity 82    
Precipitation  
Precipitation 0.87 in - - ()
Sea Level Pressure  
Sea Level Pressure 30.13 in    
Wind  
Wind Speed 15 mph (ESE)    
Max Wind Speed 32 mph    
Max Gust Speed 41 mph    
Visibility 8 miles    
Events Rain    
Averages and records for this station are not official NWS values.
T = Trace of Precipitation, MM = Missing Value Source: NWS Daily Summary

Daily Weather History Graph

Daily Weather History Graph

Search for Another Location

Airport:

Trip Planner

Search our weather history database for the weather conditions in past years. The results will help you decide how hot, cold, wet, or windy it might be!

Date:

Astronomy

May. 26, 2013 Rise Set
Actual Time 5:37 AM CDT 8:38 PM CDT
Civil Twilight 5:03 AM CDT 9:12 PM CDT
Nautical Twilight 4:19 AM CDT 9:55 PM CDT
Astronomical Twilight 3:28 AM CDT 10:47 PM CDT
Moon 10:25 PM CDT (5/26) 7:07 AM CDT (5/26)
Length of Visible Light 16h 09m
Length of Day
15h 01m
Waning Gibbous, 96% of the Moon is Illuminated
May 26
Waning Gibbous
May 31
Last Quarter
Jun 8
New
Jun 16
First Quarter
Jun 23
Full

Hourly Weather History & Observations

Time (CDT) Temp. Windchill Dew Point Humidity Pressure Visibility Wind Dir Wind Speed Gust Speed Precip Events Conditions
12:15 AM 50.0 °F - 46.4 °F 87% 30.22 in 10.0 mi ESE 13.8 mph 19.6 mph N/A   Overcast
12:35 AM 50.0 °F - 44.6 °F 82% 30.21 in 10.0 mi SE 15.0 mph 21.9 mph N/A   Mostly Cloudy
12:55 AM 50.0 °F - 44.6 °F 82% 30.21 in 10.0 mi ESE 15.0 mph - N/A   Overcast
1:15 AM 48.2 °F - 44.6 °F 87% 30.22 in 10.0 mi ESE 11.5 mph 21.9 mph N/A   Overcast
1:35 AM 48.2 °F - 44.6 °F 87% 30.21 in 10.0 mi ESE 10.4 mph - N/A   Partly Cloudy
1:55 AM 48.2 °F - 44.6 °F 87% 30.20 in 10.0 mi ESE 11.5 mph - N/A   Clear
2:15 AM 48.2 °F - 44.6 °F 87% 30.18 in 10.0 mi ESE 13.8 mph - N/A   Clear
2:35 AM 48.2 °F - 44.6 °F 87% 30.18 in 10.0 mi ESE 11.5 mph - N/A   Mostly Cloudy
2:55 AM 48.2 °F - 44.6 °F 87% 30.18 in 10.0 mi ESE 11.5 mph 18.4 mph N/A   Overcast
3:15 AM 48.2 °F - 44.6 °F 87% 30.18 in 10.0 mi ESE 13.8 mph - N/A   Overcast
3:35 AM 48.2 °F - 44.6 °F 87% 30.18 in 10.0 mi ESE 13.8 mph - N/A   Mostly Cloudy
3:55 AM 48.2 °F - 44.6 °F 87% 30.17 in 10.0 mi ESE 11.5 mph 19.6 mph N/A   Overcast
4:15 AM 48.2 °F - 42.8 °F 82% 30.16 in 10.0 mi ESE 13.8 mph - N/A   Overcast
4:35 AM 48.2 °F - 42.8 °F 82% 30.16 in 10.0 mi ESE 17.3 mph - N/A   Overcast
4:55 AM 48.2 °F - 42.8 °F 82% 30.17 in 10.0 mi ESE 15.0 mph 24.2 mph N/A   Overcast
5:15 AM 48.2 °F - 42.8 °F 82% 30.16 in 10.0 mi ESE 13.8 mph 19.6 mph N/A   Overcast
5:35 AM 48.2 °F - 42.8 °F 82% 30.17 in 9.0 mi ESE 11.5 mph 19.6 mph N/A   Overcast
5:55 AM 48.2 °F - 42.8 °F 82% 30.16 in 10.0 mi ESE 18.4 mph - N/A   Overcast
6:15 AM 48.2 °F - 42.8 °F 82% 30.17 in 10.0 mi ESE 16.1 mph - N/A   Overcast
6:35 AM 48.2 °F - 42.8 °F 82% 30.19 in 10.0 mi East 13.8 mph - N/A   Overcast
6:55 AM 48.2 °F - 42.8 °F 82% 30.20 in 5.0 mi East 15.0 mph - 0.01 in Rain Light Rain
7:15 AM 48.2 °F - 42.8 °F 82% 30.19 in 2.5 mi East 16.1 mph - N/A Rain Rain
7:35 AM 48.2 °F - 42.8 °F 82% 30.21 in 3.0 mi East 12.7 mph - N/A Rain Light Rain
7:55 AM 46.4 °F 40.4 °F 42.8 °F 87% 30.22 in 2.5 mi ENE 13.8 mph - 0.16 in Rain Heavy Rain
8:15 AM 46.4 °F 39.5 °F 44.6 °F 93% 30.20 in 2.0 mi East 17.3 mph - N/A Rain Rain
8:35 AM 46.4 °F 39.2 °F 44.6 °F 93% 30.19 in 1.8 mi East 18.4 mph - N/A Rain Rain
8:55 AM 46.4 °F 39.2 °F 44.6 °F 93% 30.20 in 1.8 mi ESE 18.4 mph - 0.27 in Rain Rain
9:15 AM 46.4 °F 39.0 °F 44.6 °F 93% 30.19 in 2.0 mi ESE 19.6 mph - N/A Rain Rain
9:35 AM 46.4 °F 40.1 °F 44.6 °F 93% 30.21 in 2.5 mi ESE 15.0 mph 23.0 mph N/A Rain Rain
9:55 AM 46.4 °F 39.2 °F 44.6 °F 93% 30.18 in 2.5 mi ESE 18.4 mph 26.5 mph 0.27 in Rain Light Rain
10:15 AM 46.4 °F 40.4 °F 44.6 °F 93% 30.21 in 2.5 mi SE 13.8 mph 21.9 mph N/A Rain Light Rain
10:35 AM 46.4 °F 38.3 °F 44.6 °F 93% 30.16 in 2.5 mi SE 23.0 mph - N/A Rain Light Rain
10:55 AM 46.4 °F 36.9 °F 44.6 °F 93% 30.07 in 2.0 mi SE 32.2 mph 41.4 mph 0.16 in Rain Light Rain
11:15 AM 48.2 °F - 46.4 °F 93% 30.10 in 5.0 mi ESE 20.7 mph 34.5 mph N/A   Clear
11:35 AM 50.0 °F - 46.4 °F 87% 30.10 in 7.0 mi SE 20.7 mph 32.2 mph N/A   Mostly Cloudy
11:55 AM 50.0 °F - 48.2 °F 94% 30.09 in 9.0 mi SE 21.9 mph 29.9 mph N/A   Overcast
12:15 PM 51.8 °F - 48.2 °F 88% 30.09 in 9.0 mi ESE 21.9 mph 28.8 mph N/A   Overcast
12:35 PM 51.8 °F - 50.0 °F 94% 30.11 in 10.0 mi East 15.0 mph 26.5 mph N/A   Overcast
12:55 PM 51.8 °F - 48.2 °F 88% 30.11 in 10.0 mi ESE 18.4 mph 24.2 mph N/A   Overcast
1:15 PM 51.8 °F - 50.0 °F 94% 30.12 in 10.0 mi East 13.8 mph 23.0 mph N/A   Overcast
1:35 PM 53.6 °F - 50.0 °F 88% 30.14 in 10.0 mi SE 11.5 mph - N/A   Overcast
1:55 PM 53.6 °F - 50.0 °F 88% 30.15 in 10.0 mi ESE 9.2 mph - N/A   Overcast
2:15 PM 53.6 °F - 50.0 °F 88% 30.16 in 10.0 mi ESE 11.5 mph 18.4 mph N/A   Overcast
2:35 PM 53.6 °F - 50.0 °F 88% 30.15 in 10.0 mi ESE 17.3 mph - N/A   Overcast
2:55 PM 53.6 °F - 50.0 °F 88% 30.15 in 10.0 mi East 15.0 mph - N/A   Overcast
3:15 PM 53.6 °F - 50.0 °F 88% 30.13 in 10.0 mi East 18.4 mph 24.2 mph N/A   Overcast
3:35 PM 53.6 °F - 50.0 °F 88% 30.12 in 10.0 mi ESE 18.4 mph - N/A   Overcast
3:55 PM 53.6 °F - 50.0 °F 88% 30.13 in 10.0 mi East 16.1 mph - N/A   Overcast
4:15 PM 53.6 °F - 50.0 °F 88% 30.10 in 10.0 mi East 16.1 mph 25.3 mph N/A   Overcast
4:35 PM 53.6 °F - 50.0 °F 88% 30.07 in 10.0 mi East 21.9 mph - N/A   Overcast
4:55 PM 53.6 °F - 50.0 °F 88% 30.06 in 10.0 mi ESE 21.9 mph 32.2 mph N/A   Overcast
5:15 PM 53.6 °F - 50.0 °F 88% 30.05 in 9.0 mi ESE 23.0 mph 31.1 mph N/A   Overcast
5:35 PM 53.6 °F - 50.0 °F 88% 30.04 in 9.0 mi East 18.4 mph - N/A   Overcast
5:55 PM 55.4 °F - 50.0 °F 82% 30.05 in 10.0 mi East 19.6 mph 29.9 mph N/A   Overcast
6:15 PM 55.4 °F - 50.0 °F 82% 30.09 in 10.0 mi ESE 16.1 mph 21.9 mph N/A   Overcast
6:35 PM 55.4 °F - 50.0 °F 82% 30.07 in 10.0 mi ESE 16.1 mph 24.2 mph N/A   Overcast
6:55 PM 55.4 °F - 50.0 °F 82% 30.09 in 10.0 mi ESE 15.0 mph - N/A   Overcast
7:15 PM 53.6 °F - 50.0 °F 88% 30.08 in 10.0 mi ESE 18.4 mph 24.2 mph N/A   Overcast
7:35 PM 53.6 °F - 50.0 °F 88% 30.08 in 9.0 mi ESE 17.3 mph - N/A   Overcast
7:55 PM 53.6 °F - 50.0 °F 88% 30.07 in 9.0 mi East 17.3 mph - N/A   Overcast
8:15 PM 53.6 °F - 51.8 °F 94% 30.08 in 8.0 mi East 15.0 mph 21.9 mph N/A   Overcast
8:35 PM 53.6 °F - 51.8 °F 94% 30.07 in 7.0 mi East 15.0 mph - N/A   Overcast
8:55 PM 53.6 °F - 51.8 °F 94% 30.06 in 7.0 mi East 12.7 mph - N/A   Overcast
9:15 PM 53.6 °F - 51.8 °F 94% 30.06 in 7.0 mi East 12.7 mph 18.4 mph N/A   Overcast
9:35 PM 53.6 °F - 51.8 °F 94% 30.08 in 7.0 mi East 10.4 mph - N/A   Overcast
9:55 PM 53.6 °F - 51.8 °F 94% 30.09 in 6.0 mi East 9.2 mph 15.0 mph N/A   Overcast
10:15 PM 53.6 °F - 51.8 °F 94% 30.08 in 5.0 mi East 12.7 mph - N/A Rain Light Rain
10:35 PM 53.6 °F - 51.8 °F 94% 30.08 in 4.0 mi East 12.7 mph - N/A   Overcast
10:55 PM 53.6 °F - 51.8 °F 94% 30.06 in 4.0 mi East 17.3 mph - N/A   Overcast
11:35 PM 53.6 °F - 51.8 °F 94% 30.04 in 4.0 mi East 15.0 mph 20.7 mph N/A   Overcast
11:55 PM 53.6 °F - 51.8 °F 94% 30.04 in 4.0 mi East 13.8 mph 20.7 mph N/A   Overcast